Погода в Брянске

Россия / Республика Бурятия     52°02′00″N   106°52′04″E
темп.,
°C
ветер,
м/с
пор.,
м/с
влажн.,
%
обл.,
%
осадки,
мм/ч
давл.,
гПа
погр.,
м
16 апреля, пт
пт1623:00−2зсз4979100 0.6 1022695
02:00−3з368688 1.3 1025388
05:00−5юз249257 0.3 1026128
08:00−2юз246918 0.3 1026666
11:00+3зюз343950 0.0 10241146
14:00+7з34317 0.0 10211346
17:00+7зюз24325 0.0 10181128
20:00+2ююв33665 0.0 101836
17 апреля, сб
сб1723:00+1ююв346048 0.0 101545
02:00+1ююв335857 0.0 101439
05:000ююв226119 0.0 101329
08:00+5юв134993 0.0 1011141
11:00+12ю12385 0.0 1008804
14:00+15зюз13335 0.0 10061587
17:00+15з243154 0.0 10041580
20:00+8ю226289 0.0 100523
18 апреля, вс
вс1823:00+4зюз5117984 0.0 1011726
02:00−1сз61192100 1.3 1017634
05:00−1ссз2782100 0.8 1017703
08:000сз356860 0.9 1019933
11:00+2сз575289 0.0 10201476
14:00+4сз574393 0.0 10201836
17:00+4ссз354362 0.0 10201654
20:00−1с116130 0.0 102215
19 апреля, пн
пн1923:00−3юв226937 0.0 102238
02:00−2юв35655 0.0 1020102
05:00−3юв366135 0.0 1018146
08:00+1юв364721 0.0 1015357
11:00+7ююв45376 0.0 1012864
14:00+12ююв34336 0.0 10071075
17:00+12юз14390 0.0 1005537
20:00+4юз12683 0.0 100658
20 апреля, вт
вт2023:00−1сз6107622 0.0 1011347
02:00+1з2571100 0.0 1013174
05:00+1з2791100 0.1 1014454
08:00−1зсз4888100 2.0 1019727
11:00−1сз4573100 1.3 1020952
14:00+1ссз465999 1.6 10191335
17:00+1с4655100 0.1 10191202
20:00−1сз2569100 0.1 1020144